Temperature
17 17 17 17 17 17 17 17 17 17 17 17 16 16 16 16 16 16 15 15 15 15 15 15 15 15 15 15 15 15 15 16 16 16 16 15 15 15 15 14 14 14 15
17 17 17 17 17 17 17 17 17 17 17 17 16 16 16 16 16 16 16 15 15 15 15 15 15 15 15 15 15 15 15 15 15 15 16 15 14 14 14 14 14 15 15
17 17 17 17 17 17 17 17 17 16 16 16 16 16 16 16 16 16 16 15 15 15 15 15 15 15 15 15 15 15 15 15 15 15 15 15 15 14 14 14 14 14 14
17 17 17 17 17 17 17 17 17 17 16 16 16 16 16 16 16 15 15 15 15 15 15 15 15 14 14 14 14 14 14 14 14 14 15 15 15 14 14 14 14 14 14
17 17 17 17 17 17 17 17 17 17 16 16 16 16 16 16 15 15 15 15 15 15 15 15 15 15 15 14 14 14 14 14 15 15 15 15 15 14 14 14 14 14 14
17 17 17 17 17 17 17 17 17 17 16 16 16 16 16 16 16 16 15 15 15 15 15 15 15 15 15 15 15 14 14 14 14 14 15 15 14 14 14 14 14 14 14
17 17 17 17 17 17 17 17 16 16 16 16 16 16 16 16 16 16 15 15 15 15 15 14 14 15 14 14 14 14 14 14 14 14 14 14 14 13 13 13 13 13 13
17 17 17 16 17 17 16 16 16 16 16 16 16 16 16 16 16 16 15 15 15 14 14 14 14 14 14 14 14 13 13 13 14 13 13 13 13 13 13 12 12 12 12
17 17 16 16 16 16 16 16 16 16 15 15 15 15 15 15 15 15 15 14 14 14 14 14 13 14 14 13 13 13 13 13 13 13 13 13 13 13 12 12 12 12 12
16 16 16 16 16 16 16 16 15 15 15 15 15 15 15 15 15 15 14 14 13 14 13 13 13 13 13 13 13 12 12 12 12 12 12 12 12 12 12 12 11 11 11
15 15 16 15 15 15 15 15 15 15 15 14 14 14 14 14 14 14 14 13 13 13 13 13 12 12 12 12 12 12 12 12 12 11 11 11 11 11 11 11 11 10 10
15 15 15 15 15 14 15 14 14 14 14 14 14 14 13 13 13 13 13 13 13 12 12 12 12 12 12 12 12 11 11 11 11 11 11 11 11 11 11 10 10 10 10
14 14 14 14 14 14 14 14 14 14 14 14 14 13 13 13 13 13 13 12 12 12 12 12 11 11 11 11 11 11 11 11 10 10 11 11 10 10 10 10 9 9 9
13 13 13 13 13 13 13 13 13 13 13 13 13 13 13 12 12 12 12 12 12 11 11 11 11 11 11 11 11 11 10 10 10 10 10 10 10 9 9 9 9 9 9
13 13 13 13 13 12 13 13 12 12 12 12 12 12 12 12 11 11 11 11 11 11 11 10 10 11 11 10 10 10 10 10 9 9 9 9 9 9 9 9 8 8 8
12 12 12 12 12 12 12 12 11 11 11 11 11 11 11 11 11 11 11 11 10 10 10 10 10 10 10 10 10 10 9 9 9 9 8 8 8 8 8 8 8 8 8
11 11 12 11 11 11 11 11 11 11 10 10 10 10 10 10 10 10 10 10 10 10 9 10 10 9 9 9 9 9 9 9 8 8 8 8 8 8 8 8 8 8 8
11 11 11 11 11 11 11 11 11 11 10 10 10 9 9 9 9 9 9 9 9 9 9 9 9 9 8 8 8 8 8 8 8 7 7 7 7 7 7 7 7 7 7
10 10 10 10 10 10 10 10 10 10 10 10 9 9 8 8 8 8 8 8 8 8 8 8 8 8 7 7 7 7 7 7 7 7 7 7 7 7 7 7 6 6 6
10 10 10 10 10 10 10 10 10 9 9 9 9 8 8 8 8 8 8 7 8 8 7 7 7 7 7 6 6 6 7 7 6 6 6 6 6 6 6 6 6 6 6
9 9 9 9 9 9 9 9 9 9 8 8 8 7 7 7 7 7 7 7 7 7 7 6 6 6 6 6 6 6 6 6 6 5 5 5 5 5 5 5 5 5 5
9 9 9 9 8 8 8 8 8 8 8 8 7 7 7 7 7 7 6 6 6 6 6 6 6 6 5 5 5 5 5 5 5 5 5 5 5 5 5 4 4 4 5
8 8 8 8 8 7 7 7 7 7 7 7 7 6 6 6 6 6 5 5 5 5 5 5 5 5 5 4 4 4 4 4 4 4 4 4 4 4 4 4 4 4 4
8 8 7 7 7 7 7 7 7 6 6 6 6 6 5 5 5 5 5 4 4 4 4 4 4 4 4 4 4 4 4 4 4 4 4 4 4 4 4 4 4 4 4
7 7 7 7 7 6 6 6 6 6 6 5 5 5 5 5 4 4 4 4 4 4 4 4 3 3 3 3 3 3 3 3 3 3 4 4 4 4 4 4 3 3 4
6 6 6 6 6 6 5 5 5 5 5 4 4 4 4 4 4 3 3 3 3 3 3 3 3 3 3 3 3 3 3 3 4 4 4 3 3 3 3 3 3 3 3
Wind_Speed
12 12 11 11 11 11 10 11 10 10 10 11 11 11 11 11 10 9 9 9 9 8 8 8 8 7 6 6 6 6 6 6 7 6 5 4 5 7 6 7 10 10 12
11 11 11 11 11 11 11 11 10 10 10 11 11 11 11 11 11 11 11 10 10 10 9 9 9 8 8 8 7 7 6 6 7 8 6 6 7 8 8 8 10 11 11
11 11 10 10 11 11 10 10 10 10 10 10 10 11 11 11 11 12 11 11 11 10 10 10 10 9 10 9 8 8 7 8 8 8 8 6 7 7 8 9 10 9 12
11 11 11 11 11 11 10 10 10 11 10 10 11 11 11 11 12 11 11 11 11 10 10 10 10 11 11 10 9 9 9 9 8 9 9 8 8 8 7 9 9 8 9
12 12 11 10 10 10 10 10 10 10 10 10 10 10 10 10 10 11 11 11 10 10 10 10 11 10 8 8 9 9 9 9 9 9 9 9 9 7 8 8 9 9 9
11 11 10 10 10 10 10 10 10 10 10 10 10 10 10 9 7 8 9 9 10 10 10 10 10 10 10 10 10 9 9 10 11 10 10 10 9 9 8 9 9 10 11
10 10 10 10 10 9 9 10 10 10 10 10 9 9 9 7 8 9 10 9 9 9 9 9 9 9 11 11 11 12 12 12 12 12 12 12 10 8 8 11 10 12 12
8 8 8 9 9 9 8 8 8 7 7 7 7 8 7 6 8 8 9 10 9 9 9 8 8 8 7 8 9 10 11 11 12 12 12 13 11 9 9 10 12 13 14
8 7 7 8 8 7 7 7 6 6 6 6 6 6 6 5 7 8 8 8 8 8 8 7 7 7 5 5 8 10 11 10 10 11 12 12 12 11 10 10 11 12 13
6 6 5 6 6 7 7 6 6 6 6 5 5 5 5 5 6 8 9 7 7 6 6 6 5 6 4 5 8 9 11 10 8 8 9 12 14 14 14 13 13 13 13
6 6 5 5 5 6 5 5 5 5 5 5 4 4 4 3 5 7 7 5 5 5 5 5 4 6 6 7 8 8 7 7 8 9 9 9 9 9 9 10 10 11 12
6 6 6 5 4 5 5 4 4 4 4 4 3 3 2 3 2 5 6 5 4 4 4 4 2 4 6 7 7 6 7 8 8 8 9 9 9 9 8 8 10 12 12
7 6 6 6 5 4 4 4 3 2 2 2 2 1 1 1 3 5 6 6 5 4 4 2 2 4 5 7 8 9 8 7 7 8 8 9 8 8 8 8 10 11 13
9 7 7 6 6 5 4 3 2 2 1 1 1 1 1 1 1 1 1 3 5 5 5 4 7 8 8 7 6 7 7 7 7 8 8 8 8 8 8 9 9 9 11
9 8 8 8 7 7 7 6 5 6 4 3 2 2 1 1 4 5 3 2 2 2 3 5 5 5 5 5 5 5 6 6 7 7 8 8 8 8 9 9 9 10 11
8 7 6 6 6 5 5 6 10 8 9 9 8 5 4 5 4 3 3 3 2 3 5 5 5 6 6 6 6 7 7 7 7 7 8 9 9 9 9 9 9 10 11
8 7 6 5 5 4 4 4 4 5 6 7 7 7 5 4 3 3 2 3 4 5 5 5 5 5 6 7 7 8 8 7 7 8 9 9 9 10 10 10 10 10 11
8 8 6 5 5 5 4 4 3 3 2 2 5 6 4 2 2 2 3 4 3 3 4 5 5 5 6 7 7 8 8 8 8 8 9 9 9 10 10 10 10 11 12
8 7 6 5 5 5 4 4 3 4 3 3 3 3 2 1 3 3 4 4 5 5 5 5 6 6 6 7 7 8 8 9 9 9 9 9 10 10 10 10 11 12 12
7 8 6 5 4 5 4 4 4 4 4 4 4 5 5 5 5 3 3 4 5 6 6 6 6 7 7 8 8 8 9 9 9 9 9 9 10 10 11 12 12 12 11
5 5 3 4 5 5 5 5 4 4 4 4 4 4 5 7 6 6 6 5 6 6 7 7 7 8 8 8 8 9 10 10 10 10 10 10 10 10 10 11 12 12 12
5 5 5 5 4 5 5 4 4 5 5 5 5 3 2 6 6 7 7 6 7 7 7 7 8 8 8 8 8 9 10 10 10 10 10 10 10 10 11 11 12 12 12
4 5 5 4 4 3 3 4 5 5 5 6 6 6 6 6 7 7 7 7 8 8 8 8 8 9 9 9 9 9 10 10 9 10 11 11 11 11 11 12 14 14 13
5 5 5 5 4 5 5 5 5 6 6 6 6 6 6 6 7 7 8 7 8 8 8 9 9 11 13 11 11 10 9 10 12 11 13 12 12 11 11 11 12 14 14
4 5 5 5 5 5 6 6 6 6 6 6 6 6 7 7 7 7 7 8 9 9 10 11 10 11 13 14 13 12 11 12 12 13 12 10 12 13 13 13 12 13 13
5 5 5 5 5 5 5 5 6 6 6 6 7 7 7 7 8 8 8 9 10 10 10 10 11 13 14 13 13 14 13 13 13 13 12 10 11 11 12 11 13 12 13
Wind_Direction
186 186 189 191 193 195 200 200 198 200 198 198 200 200 202 203 204 209 219 208 215 218 218 218 223 238 232 228 228 232 236 244 255 257 244 230 230 257 250 250 254 250 243
184 185 187 192 194 195 199 199 197 198 199 199 200 203 204 205 206 211 219 216 218 220 219 218 219 216 222 238 234 233 235 241 251 259 257 243 228 239 248 256 261 255 261
182 184 188 192 194 197 201 200 199 199 199 199 200 205 209 211 212 214 218 219 220 222 220 219 220 220 223 226 231 235 234 233 240 253 254 252 247 242 247 251 256 259 264
184 186 189 195 196 197 198 198 198 197 196 199 203 208 211 215 215 215 216 219 222 224 224 224 225 226 227 229 228 233 240 244 241 248 254 251 246 241 244 256 258 247 255
186 190 193 194 193 194 195 195 194 195 199 201 206 211 213 214 215 214 216 217 220 223 224 227 229 228 234 236 241 235 235 241 246 248 252 255 252 249 252 260 267 272 262
188 191 191 190 192 194 192 191 194 198 203 202 206 210 211 215 189 197 219 222 222 226 227 228 229 221 225 229 248 261 262 250 252 258 259 260 263 264 268 270 271 270 272
186 189 189 192 193 192 192 191 195 199 201 203 205 209 213 207 172 190 212 227 228 229 230 231 235 227 216 228 225 229 244 251 254 259 265 268 271 268 272 268 266 272 275
177 183 185 186 187 188 189 191 194 196 199 204 207 209 212 201 171 188 203 221 232 233 233 232 236 242 233 236 240 237 238 236 234 239 252 262 269 277 273 270 276 273 268
171 177 180 183 185 185 187 188 188 189 194 200 204 207 211 204 177 191 203 218 226 230 233 231 233 235 228 233 247 252 255 252 239 232 241 254 267 272 269 271 270 270 272
157 158 161 168 172 173 173 175 175 181 190 196 198 205 210 214 179 190 209 225 227 227 225 226 222 237 227 213 240 253 259 264 268 257 243 248 254 251 237 243 259 267 273
120 123 127 137 151 159 162 167 167 175 182 190 195 195 198 200 170 177 199 227 238 234 234 233 224 193 220 226 240 252 261 272 272 270 268 264 259 255 249 243 247 259 270
102 106 109 112 120 127 133 139 154 174 180 185 187 191 177 171 162 163 177 208 268 245 250 258 248 173 213 227 232 241 254 264 264 266 267 268 269 268 266 263 259 259 261
86 89 94 97 95 104 120 129 141 158 173 171 174 181 166 146 147 158 182 202 234 253 266 283 263 221 234 236 227 230 240 252 263 268 271 275 278 280 280 273 266 261 259
77 77 76 75 74 69 62 75 79 71 82 92 95 88 86 102 60 97 206 213 217 237 257 238 223 231 239 251 241 231 241 255 264 270 275 280 282 280 273 273 276 277 276
78 73 74 73 69 65 59 46 51 50 46 40 44 42 25 32 37 15 338 298 277 270 271 259 256 252 247 249 253 255 258 256 256 265 274 277 278 278 279 279 278 278 277
81 74 72 72 68 67 75 72 59 66 78 71 55 38 57 56 37 18 358 340 316 281 266 264 268 272 276 282 283 280 276 274 275 278 277 276 278 278 279 280 279 279 281
74 70 68 66 68 64 60 63 74 89 97 88 82 68 48 25 13 358 327 296 261 244 259 274 281 284 285 284 285 287 288 287 286 281 279 279 279 279 278 279 279 280 281
72 72 63 63 58 55 52 47 45 38 44 68 106 104 91 53 346 301 283 277 269 243 279 290 291 291 291 292 293 293 292 290 287 285 282 281 280 280 281 282 282 284 287
58 57 53 50 50 49 41 35 32 28 18 12 14 85 96 295 222 230 257 302 312 308 307 306 304 304 302 301 299 295 293 292 291 290 287 287 286 285 286 286 287 287 285
68 57 36 37 39 37 31 22 20 15 7 4 3 7 359 333 327 327 314 319 311 310 308 304 304 302 299 296 295 295 295 294 293 289 289 290 290 288 288 288 288 290 288
54 62 62 32 33 29 23 15 7 358 356 352 353 22 353 324 323 326 322 319 315 315 315 312 306 300 298 298 300 301 300 298 296 293 291 289 288 289 291 292 291 288 286
36 33 32 30 24 21 7 357 352 347 343 339 336 342 303 310 325 326 325 323 320 317 314 311 306 305 308 309 307 304 300 298 299 299 297 296 293 291 292 290 288 288 287
24 22 23 23 17 12 345 347 346 343 341 337 336 335 333 333 331 332 330 329 327 323 321 316 309 308 314 315 311 306 303 306 310 311 306 300 297 294 291 288 286 287 285
20 13 10 8 1 356 355 352 348 345 345 343 340 339 338 338 337 337 334 331 328 324 323 319 313 313 314 315 310 307 316 324 319 308 302 295 292 290 289 288 287 288 288
16 9 3 358 355 357 357 355 352 350 350 349 343 341 340 340 340 341 339 335 329 325 324 322 322 322 322 320 319 322 336 333 319 307 298 288 284 283 284 286 287 291 290
14 7 2 2 3 359 355 353 352 350 351 351 349 348 347 346 346 344 342 340 335 332 329 327 326 326 324 324 329 332 328 318 311 302 294 286 283 285 289 289 290 288 290
Height
1496 1500 1504 1507 1511 1515 1518 1522 1525 1528 1530 1533 1536 1539 1541 1543 1545 1547 1549 1550 1551 1552 1553 1554 1555 1557 1558 1559 1560 1561 1561 1562 1562 1563 1563 1562 1560 1560 1561 1560 1559 1558 1558
1495 1499 1502 1506 1509 1513 1516 1519 1522 1525 1528 1531 1533 1536 1538 1540 1542 1543 1545 1547 1547 1549 1550 1551 1552 1553 1554 1555 1556 1557 1558 1558 1559 1559 1559 1558 1557 1556 1555 1555 1556 1556 1555
1495 1498 1501 1504 1507 1510 1514 1517 1520 1523 1526 1528 1531 1533 1535 1537 1538 1540 1542 1543 1544 1545 1546 1547 1548 1549 1550 1552 1552 1553 1554 1555 1554 1555 1554 1554 1554 1553 1552 1551 1551 1549 1549
1494 1497 1499 1502 1506 1509 1512 1514 1517 1520 1523 1525 1527 1529 1531 1533 1534 1536 1538 1539 1540 1541 1543 1543 1544 1546 1547 1548 1548 1548 1550 1550 1550 1550 1550 1550 1549 1548 1547 1547 1546 1545 1544
1492 1495 1498 1501 1504 1507 1509 1512 1515 1517 1520 1522 1524 1526 1527 1529 1531 1532 1534 1535 1536 1537 1538 1539 1540 1541 1542 1543 1544 1545 1545 1545 1546 1546 1545 1545 1544 1544 1543 1542 1541 1540 1539
1491 1494 1497 1499 1502 1504 1507 1509 1511 1514 1516 1518 1520 1522 1524 1525 1526 1528 1529 1531 1531 1532 1533 1534 1535 1536 1536 1537 1538 1539 1540 1540 1541 1541 1540 1540 1539 1539 1538 1537 1536 1535 1533
1488 1492 1494 1497 1500 1502 1504 1506 1508 1510 1512 1514 1516 1518 1519 1520 1522 1524 1525 1527 1528 1528 1529 1530 1531 1531 1531 1532 1532 1533 1533 1533 1534 1534 1534 1533 1533 1532 1531 1530 1529 1527 1525
1486 1489 1492 1495 1497 1499 1501 1503 1505 1507 1509 1511 1512 1514 1515 1516 1518 1519 1521 1522 1523 1523 1524 1524 1525 1526 1526 1526 1526 1527 1527 1526 1527 1526 1526 1526 1526 1525 1524 1523 1522 1520 1518
1484 1487 1490 1492 1495 1497 1499 1501 1502 1504 1506 1508 1509 1510 1511 1512 1514 1515 1517 1517 1518 1518 1519 1519 1520 1520 1520 1521 1521 1521 1521 1521 1521 1520 1519 1519 1519 1518 1517 1516 1515 1514 1511
1483 1485 1488 1490 1492 1494 1496 1498 1500 1501 1503 1504 1505 1507 1508 1509 1510 1511 1512 1513 1513 1513 1514 1514 1514 1515 1515 1515 1515 1515 1515 1515 1515 1514 1513 1511 1511 1510 1509 1508 1507 1507 1504
1482 1484 1486 1488 1490 1492 1494 1495 1497 1499 1500 1501 1502 1503 1504 1505 1506 1507 1508 1508 1509 1510 1510 1510 1510 1509 1509 1509 1510 1510 1509 1509 1508 1508 1507 1506 1505 1503 1502 1501 1500 1499 1498
1483 1484 1486 1487 1489 1491 1492 1494 1495 1497 1498 1499 1500 1501 1502 1502 1503 1503 1503 1504 1505 1505 1506 1506 1506 1505 1505 1504 1504 1504 1504 1504 1503 1502 1501 1500 1499 1498 1496 1494 1493 1492 1490
1484 1485 1486 1488 1489 1490 1491 1493 1494 1495 1497 1498 1498 1499 1500 1500 1500 1500 1500 1501 1501 1501 1502 1502 1501 1501 1500 1500 1499 1499 1499 1498 1498 1497 1495 1494 1493 1491 1490 1488 1486 1484 1482
1485 1487 1487 1488 1490 1490 1492 1493 1494 1494 1495 1496 1496 1497 1498 1498 1498 1498 1498 1498 1498 1498 1498 1498 1497 1497 1496 1496 1495 1494 1494 1493 1492 1491 1489 1488 1487 1485 1483 1482 1480 1478 1476
1488 1489 1490 1490 1491 1491 1491 1492 1493 1493 1494 1494 1495 1496 1496 1496 1496 1496 1496 1496 1496 1495 1495 1495 1495 1494 1493 1492 1491 1490 1489 1488 1486 1485 1483 1482 1480 1479 1477 1476 1474 1472 1470
1490 1492 1492 1493 1493 1493 1493 1493 1493 1493 1493 1493 1493 1494 1494 1494 1494 1493 1493 1493 1493 1492 1492 1492 1491 1490 1489 1488 1487 1486 1485 1483 1482 1480 1478 1477 1475 1473 1471 1470 1468 1466 1463
1493 1493 1494 1494 1494 1495 1495 1495 1494 1495 1494 1493 1493 1493 1493 1492 1492 1491 1491 1490 1489 1489 1489 1488 1487 1486 1485 1484 1482 1481 1480 1478 1476 1475 1473 1471 1469 1468 1466 1463 1462 1459 1457
1496 1496 1496 1496 1496 1496 1496 1496 1496 1495 1495 1495 1494 1492 1491 1491 1490 1489 1488 1487 1487 1486 1486 1485 1483 1482 1481 1479 1478 1476 1475 1473 1471 1470 1468 1466 1464 1462 1460 1457 1455 1453 1450
1498 1498 1498 1498 1498 1498 1497 1497 1496 1496 1495 1495 1494 1492 1490 1489 1488 1487 1486 1486 1485 1484 1483 1481 1480 1478 1477 1475 1474 1472 1470 1468 1466 1464 1462 1460 1458 1456 1454 1451 1449 1446 1444
1499 1499 1499 1499 1499 1498 1498 1497 1497 1496 1495 1494 1493 1492 1490 1489 1488 1486 1485 1484 1483 1481 1480 1478 1476 1475 1473 1471 1469 1467 1465 1463 1461 1459 1457 1455 1453 1450 1448 1445 1443 1440 1438
1502 1501 1500 1500 1500 1499 1498 1498 1497 1496 1495 1493 1492 1491 1489 1488 1486 1485 1483 1481 1480 1478 1476 1475 1473 1471 1469 1467 1465 1462 1460 1458 1456 1453 1451 1449 1447 1444 1442 1439 1436 1434 1431
1502 1502 1501 1500 1500 1499 1498 1497 1496 1495 1494 1492 1491 1489 1487 1486 1484 1483 1481 1479 1477 1475 1473 1471 1469 1467 1465 1462 1460 1457 1455 1452 1450 1448 1445 1443 1440 1437 1435 1432 1429 1427 1424
1503 1502 1502 1501 1500 1498 1497 1497 1495 1494 1492 1491 1489 1488 1486 1484 1482 1480 1478 1476 1473 1471 1469 1467 1464 1462 1460 1457 1454 1452 1449 1447 1444 1441 1439 1436 1433 1430 1428 1425 1423 1420 1418
1503 1502 1501 1500 1499 1498 1497 1495 1494 1492 1491 1489 1488 1486 1484 1482 1480 1478 1475 1473 1470 1468 1465 1462 1459 1457 1454 1452 1449 1447 1444 1441 1438 1435 1432 1429 1427 1424 1421 1419 1416 1414 1411
1503 1502 1501 1500 1498 1497 1495 1494 1493 1491 1490 1488 1486 1484 1482 1480 1478 1476 1473 1470 1467 1464 1461 1458 1455 1452 1449 1446 1444 1441 1438 1435 1432 1429 1426 1423 1421 1418 1416 1413 1410 1408 1405
1502 1501 1500 1499 1497 1496 1494 1493 1492 1490 1488 1487 1485 1483 1481 1479 1476 1473 1471 1468 1464 1461 1458 1455 1452 1448 1445 1442 1439 1436 1433 1430 1427 1424 1420 1417 1415 1413 1410 1408 1405 1402 1400